User: anonymous   Login
Location: Goheenville
(40.9070°N, 79.3720°W)
Time: 19:31:50
(UTC-04:00)
Language:

Meteor 2-10 Rocket - Orbit

View from above orbital plane
View from above orbital plane
View from above satellite
View from above satellite

Ground track
Ground track

The orbit data is extracted from the following two-line orbital elements,

1 14453U 83109B   16181.75448687  .00000037  00000-0  98477-5 0  9994
2 14453  81.1679 100.8482 0105231   3.8949 356.3024 14.24649826697347
Epoch (UTC): 29 June 2016 18:06:27
Eccentricity: 0.0105231
inclination: 81.1679°
perigee height: 734 km
apogee height: 885 km
right ascension of ascending node: 100.8482°
argument of perigee: 3.8949°
revolutions per day: 14.24649826
mean anomaly at epoch: 356.3024°
orbit number at epoch: 69734

The dashed part of the orbit path shows where the satellite is in the earth's shadow,  

DLR